パンスターズ彗星

C/2016 N6 ( PanSTARRS )

English version
Home page
Updated on February 13, 2018

---------------------------------------------------------------------

・ プロフィール

発見日 2016年7月14日
発見光度 20.7等
発見者 Pan-STARRS 1 telescope (Haleakala)

・ 写真集

・ 軌道要素

Epoch 2018 July 21.0 TT = JDT 2458320.5
T 2018 July 18.21131 TT                                 MPCW
q   2.6690908            (2000.0)            P               Q
z  +0.0004670      Peri.  162.80547     -0.53334891     +0.08479297
 +/-0.0000004      Node   298.97615     +0.61778489     +0.71869710
e   0.9987534      Incl.  105.83224     +0.57782417     -0.69013378
From 1295 observations 2016 June 27-2018 Jan. 25, mean residual 0".4.

・ 星図

・ 光度変化

        m1 = 3.5 + 5 logΔ + 14.0 log r

---------------------------------------------------------------------

軌道要素はM.P.E.C. 2018-B155に掲載されたものです。
星図はステラナビゲータ Ver.10 (アストロアーツ) で作成したものです。
光度グラフはComet for Windowsで作成したものです。

---------------------------------------------------------------------

Copyright(C) Seiichi Yoshida (comet@aerith.net). All rights reserved.